Regional Weather Roundup
Issued by NWS Newport/Morehead, NC

Current Version | Previous Version | Graphics & Text | Print | Product List | Glossary On
Versions: 1 2 3 4 5 6 7 8 9 10 11 12 13 14 15 16 17 18 19 20 21 22 23 24 25 26 27 28 29 30 31 32 33 34 35 36 37 38 39 40 41 42 43 44 45 46 47 48 49 50
000 ASUS42 KMHX 020612 RWRMHX WEATHER ROUNDUP FOR EASTERN NORTH CAROLINA NATIONAL WEATHER SERVICE NEWPORT/MOREHEAD CITY NC 100 AM EST MON MAR 02 2015 NOTE: "FAIR" INDICATES FEW OR NO CLOUDS BELOW 12,000 FEET WITH NO SIGNIFICANT WEATHER AND/OR OBSTRUCTIONS TO VISIBILITY NCZ015>017-031-032-045>047-102-103-020700- NORTH COAST CITY SKY/WX TMP DP RH WIND PRES REMARKS EDENTON FOG 36 35 98 W6 30.27F VSB 1 ELIZABETH CITY CLOUDY 37 36 96 W5 30.25F KITTY HAWK CLOUDY 41 41 100 W7 30.23S FOG MANTEO CLOUDY 45 45 100 W3 30.25S $$ NCZ045>047-081-094-103-104-020700- CENTRAL COAST CITY SKY/WX TMP DP RH WIND PRES REMARKS FRISCO CLOUDY 41 41 100 CALM 30.26F FOG SWANQUARTER N/A 41 N/A N/A S7 30.21F $$ NCZ095-097-098-100-101-020700- SOUTHERN COAST CITY SKY/WX TMP DP RH WIND PRES REMARKS BEAUFORT FOG 45 45 100 W3 30.29F VSB 1 CEDAR ISLAND N/A 43 N/A N/A SW2 30.33S JACKSONVILLE FOG 42 41 96 CALM 30.30F VSB 1/2 PINEY ISLAND N/A N/A N/A N/A MISG 30.28F WILMINGTON FOG 43 42 97 CALM 30.30F VSB 1/2 $$ NCZ011>013-027>030-043-044-078>080-089-090>093-098-020700- COASTAL PLAIN CITY SKY/WX TMP DP RH WIND PRES REMARKS AHOSKIE FOG 33 32 98 CALM 30.26F VSB 1/2 CLINTON CLOUDY 38 38 100 CALM 30.29F FOG ELIZABETHTOWN FOG 40 40 100 SW5 30.30F VSB 1/2 GOLDSBORO CLOUDY 39 39 100 W5 30.26F FOG GREENVILLE FOG 36 36 100 CALM 30.29F VSB 3/4 HAVELOCK LGT RAIN 43 42 97 SW6 30.30F VSB 1 KENANSVILLE CLOUDY 39 39 100 SW3 30.30F FOG KINSTON CLOUDY 39 39 99 SW5 30.28F FOG NEW BERN FOG 42 40 92 SW5 30.29F VSB 1/2 RICHLANDS CLOUDY 41 37 87 S8 30.29F VSB 1/4 ROCKY MOUNT FOG 36 36 100 SW6 30.27F VSB 1 WASHINGTON FOG 38 37 98 W3 30.28F VSB 1 WHITEVILLE CLOUDY 41 40 97 CALM 30.31F FOG $$ AMZ130-135-150-152-154-156-158-170-250-252-270-ANZ085-086-088-633-658-670-020700- MARINE OBSERVATIONS STATION/POSITION TIME TEMP WIND PRES WAVE SWELL AIR SEA DIR/SP/G HT/PER HT/PER (UTC) (F) (DEG/KT/KT) (MB) (FT/S) (FT/S) CHESAPEAKE LIGHT 0500 33 250/ 14/ 15 1025.0 64 E VA BEACH 0550 49 53 230/ 17/ 19 1022.1 4/ 6 2/17 DUCK 0500 230/ 6/ 7 N/A 2 E DUCK 0511 N/A 3/ 6 10 NE DUCK 0522 37 N/A 4/ 6 OREGON INLET 0500 40 41 160/ 8/ 10 1024.2 HATTERAS CG 0500 41 41 120/ 2/ 2 1025.5 CAPE LOOKOUT 0600 47 230/ 3/ 4 1025.5 BEAUFORT LAB 0500 45 43 280/ 2/ 3 1025.2 27 SE WRIGHTSVLE NOT AVBL 5 SE WRIGHTSVLE NOT AVBL 225 S CAPE HAT 0550 70 72 190/ 16/ 17 1027.5 7/ 8 5/ 8 41 SE CHARLESTON 0550 55 68 10/ 4/ 6 1026.6 5/ 9 5/ 9 $$

USA.gov is the U.S. government's official web portal to all federal, state and local government web resources and services.